Find Starlink 35521

NORAD ID: 65916 Int'l Des: 2025-225 Owner: SPXS Country: US Constellation: starlink operational
LEOCIRCULAR

現在のビュー

3D地球を読み込み中...

Starlink 35521について

説明を読み込み中...

次回通過

Passes for default location (London). Set your location on the main map for personalized predictions.

高度履歴

Loading altitude history...

軌道要素

1 65916U 25225G 26149.52593157 .00032690 00000-0 11106-2 0 9993
2 65916 53.1592 150.2659 0001227 67.2728 292.8403 15.30210932 36784
Epoch: May 29, 2026 • Age: 22 hours

現在のステータス

高度 481.1 km
速度 7.63 km/s
衛星直下点 -21.20°S, 84.52°E
打ち上げ日 Oct 8, 2025
運用期間 0.6 years
タイプ internet

技術仕様

分類 Payload
質量 575.00 kg
乾燥質量 530.00 kg
総質量 575.00 kg
長さ 0.30 m
直径 4.10 m
スパン 29.00 m
形状 Box + pan
製造者 SPXS
バスタイプ Starlink V2MO
フェーズステータス In Orbit
所有者/国 SPXS/US

Most Searched